EST,Max TemperatureF,Mean TemperatureF,Min TemperatureF,Max Dew PointF,MeanDew PointF,Min DewpointF,Max Humidity, Mean Humidity, Min Humidity, Max Sea Level PressureIn, Mean Sea Level PressureIn, Min Sea Level PressureIn, Max VisibilityMiles, Mean VisibilityMiles, Min VisibilityMiles, Max Wind SpeedMPH, Mean Wind SpeedMPH, Max Gust SpeedMPH,PrecipitationIn, CloudCover, Events, WindDirDegrees
2013-1-1,32,20,9,29,17,6,93,77,58,30.14,30.09,30.01,10,9,5,13,7,,0.00,5,,313
2013-1-2,19,13,7,14,9,3,92,82,70,30.25,30.20,30.13,10,9,6,9,6,,0.00,2,,239
2013-1-3,28,18,7,23,14,1,81,73,59,30.24,30.19,30.12,10,9,7,17,11,,0.00,6,,230
2013-1-4,27,22,18,21,16,12,78,72,65,30.27,30.22,30.19,10,10,10,22,15,31,0.00,2,,241
2013-1-5,35,26,16,29,22,13,92,79,70,30.33,30.23,30.10,10,9,5,17,12,,0.00,3,,206
2013-1-6,36,31,26,32,27,23,93,83,75,30.29,30.06,29.96,10,6,2,22,15,28,0.00,8,Rain,245
2013-1-7,33,26,19,26,23,18,93,84,72,30.44,30.34,30.22,10,6,2,17,8,,0.00,2,,206
2013-1-8,37,29,21,29,24,17,89,80,70,30.30,30.25,30.20,9,8,5,13,8,,0.00,0,,181
2013-1-9,44,36,28,35,31,25,85,77,65,30.50,30.26,30.13,10,10,8,18,13,28,0.00,2,Rain,229
2013-1-10,39,32,25,30,28,23,96,78,63,30.56,30.43,30.13,10,9,6,14,5,,0.00,2,Rain,107
2013-1-11,57,48,39,52,46,32,100,87,70,30.06,29.90,29.83,10,9,2,24,14,30,0.55,5,Rain,188
2013-1-12,61,54,46,55,52,44,100,89,75,29.98,29.88,29.74,10,7,2,15,10,,0.53,4,Rain-Thunderstorm,155
2013-1-13,63,48,33,61,43,30,100,94,85,30.07,29.85,29.65,10,6,0,33,11,52,0.78,8,Fog-Rain,292
2013-1-14,32,28,23,28,19,17,85,78,72,30.42,30.34,30.10,10,10,7,17,11,24,0.00,8,,304
2013-1-15,30,26,21,22,18,15,82,72,61,30.43,30.32,30.12,10,10,10,12,7,,0.00,4,,40
2013-1-16,34,30,27,25,23,21,89,74,59,30.07,29.98,29.91,10,9,6,16,9,24,0.00,4,,246
2013-1-17,39,30,19,29,24,9,88,75,55,30.35,30.16,30.00,10,9,6,21,11,28,0.00,4,,271
2013-1-18,37,28,19,23,18,13,81,65,52,30.48,30.32,30.07,10,10,10,29,11,40,0.00,2,,217
2013-1-19,50,44,37,33,27,22,65,53,44,30.07,29.93,29.73,10,10,10,23,20,34,0.00,0,,218
2013-1-20,44,32,19,34,13,9,68,60,46,30.22,30.09,29.72,10,10,10,33,21,48,0.00,4,,284
2013-1-21,19,14,8,10,6,-4,79,63,47,30.18,30.07,30.01,10,7,2,26,15,37,0.00,7,Snow,269
2013-1-22,14,8,3,0,-2,-4,76,61,47,30.33,30.28,30.17,10,9,2,23,17,28,0.00,4,Snow,267
2013-1-23,18,12,7,14,5,-2,88,68,43,30.32,30.20,30.05,10,8,2,14,9,,0.00,6,Snow,245
2013-1-24,21,13,5,16,8,2,93,74,48,30.60,30.38,30.06,10,9,1,16,9,24,0.00,2,Snow,344
2013-1-25,23,18,15,19,13,8,93,80,65,30.47,30.15,30.00,10,5,0,14,8,,0.06,8,Fog-Snow,170
2013-1-26,26,18,10,20,15,7,88,78,58,30.46,30.28,30.09,10,8,4,14,8,20,0.00,6,Snow,277
2013-1-27,32,21,10,28,18,7,88,78,66,30.50,30.35,30.13,10,7,2,17,7,24,0.07,5,Rain-Snow,137
2013-1-28,48,40,33,48,42,30,100,94,86,30.12,29.99,29.92,8,4,0,25,15,31,0.18,8,Fog-Rain,203
2013-1-29,60,52,45,54,50,45,100,89,77,29.99,29.81,29.50,10,6,0,28,13,37,0.01,6,Fog,193
2013-1-30,63,48,33,55,47,27,100,87,75,29.46,29.30,29.19,10,9,4,32,20,41,0.51,7,Rain-Snow,221
2013-1-31,32,24,16,27,17,6,86,74,60,29.95,29.68,29.38,10,7,1,37,28,47,0.00,8,Snow,264